N100MB KAPA-KAKO

Flight info

Callsign N100MB
Flight time N/A
Altitude 7999
Route PLAIN2 AKO
Aircraft C172/L-SFG/C

Departure

Time 2026-04-20 20:24
Airport Centennial Airport (KAPA)

Arrival

Time N/A
Airport Colorado Plains Regional Airport (KAKO)
Time Latitude Longitude Altitude Speed Heading
2026-04-20 19:59 39.57683 -104.84877 5843 ft 0 kts 73°
2026-04-20 20:16 39.57673 -104.84867 5843 ft 6 kts 182°
2026-04-20 20:16 39.57611 -104.84896 5843 ft 11 kts 175°
2026-04-20 20:16 39.57541 -104.84910 5844 ft 11 kts 206°
2026-04-20 20:17 39.57488 -104.84917 5846 ft 0 kts 109°
2026-04-20 20:20 39.57473 -104.84891 5847 ft 6 kts 158°
2026-04-20 20:21 39.57427 -104.84876 5849 ft 9 kts 150°
2026-04-20 20:21 39.57380 -104.84807 5853 ft 10 kts 142°
2026-04-20 20:21 39.57347 -104.84790 5860 ft 5 kts 187°
2026-04-20 20:21 39.57343 -104.84791 5859 ft 1 kts 192°
2026-04-20 20:22 39.57306 -104.84808 5860 ft 9 kts 202°
2026-04-20 20:22 39.57284 -104.84799 5860 ft 0 kts 108°
2026-04-20 20:22 39.57260 -104.84716 5858 ft 29 kts 111°
2026-04-20 20:22 39.57133 -104.84290 5844 ft 68 kts 111°
2026-04-20 20:23 39.56961 -104.83653 5887 ft 81 kts 108°
2026-04-20 20:23 39.56789 -104.82949 5983 ft 84 kts 107°
2026-04-20 20:23 39.56632 -104.82176 6097 ft 88 kts 108°
2026-04-20 20:23 39.56470 -104.81491 6330 ft 73 kts 113°
2026-04-20 20:24 39.56278 -104.80817 6359 ft 86 kts 112°
2026-04-20 20:24 39.56065 -104.80066 6460 ft 90 kts 111°
2026-04-20 20:24 39.55855 -104.79302 6601 ft 90 kts 111°
2026-04-20 20:24 39.55661 -104.78525 6728 ft 91 kts 95°
2026-04-20 20:25 39.55990 -104.77889 6861 ft 89 kts 39°
2026-04-20 20:25 39.56470 -104.77372 6985 ft 90 kts 37°
2026-04-20 20:25 39.56965 -104.76869 7115 ft 91 kts 37°
2026-04-20 20:25 39.57465 -104.76364 7245 ft 91 kts 37°
2026-04-20 20:26 39.57965 -104.75858 7367 ft 91 kts 38°
2026-04-20 20:26 39.58464 -104.75352 7486 ft 91 kts 37°
2026-04-20 20:26 39.58959 -104.74851 7616 ft 91 kts 37°
2026-04-20 20:26 39.59462 -104.74343 7741 ft 92 kts 38°
2026-04-20 20:27 39.59964 -104.73834 7861 ft 92 kts 35°
2026-04-20 20:27 39.60562 -104.73576 7988 ft 91 kts 18°
2026-04-20 20:27 39.61172 -104.73340 8093 ft 93 kts 15°
2026-04-20 20:27 39.61841 -104.73125 8105 ft 104 kts 10°
2026-04-20 20:28 39.62584 -104.72924 8106 ft 113 kts 12°
2026-04-20 20:28 39.63370 -104.72675 8100 ft 119 kts 14°
2026-04-20 20:28 39.64179 -104.72393 8101 ft 122 kts 15°
2026-04-20 20:28 39.65000 -104.72099 8098 ft 123 kts 15°
2026-04-20 20:29 39.65828 -104.71792 8101 ft 124 kts 15°
2026-04-20 20:29 39.66656 -104.71483 8101 ft 124 kts 16°
2026-04-20 20:29 39.67492 -104.71170 8100 ft 125 kts 15°
2026-04-20 20:29 39.68327 -104.70858 8099 ft 124 kts 16°
2026-04-20 20:30 39.69157 -104.70551 8097 ft 124 kts 16°
2026-04-20 20:30 39.69976 -104.70245 8097 ft 124 kts 15°
2026-04-20 20:30 39.70806 -104.69935 8097 ft 124 kts 15°
2026-04-20 20:30 39.71637 -104.69625 8097 ft 124 kts 16°
2026-04-20 20:31 39.72470 -104.69314 8096 ft 125 kts 16°
2026-04-20 20:31 39.73299 -104.69006 8096 ft 123 kts 15°
2026-04-20 20:31 39.74124 -104.68698 8094 ft 124 kts 15°
2026-04-20 20:31 39.74954 -104.68388 8095 ft 124 kts 15°
2026-04-20 20:32 39.75786 -104.68078 8096 ft 125 kts 16°
2026-04-20 20:32 39.76621 -104.67766 8096 ft 125 kts 15°
2026-04-20 20:32 39.77459 -104.67454 8095 ft 125 kts 15°
2026-04-20 20:32 39.78292 -104.67144 8094 ft 124 kts 16°
2026-04-20 20:33 39.79125 -104.66833 8095 ft 124 kts 16°
2026-04-20 20:33 39.79957 -104.66522 8093 ft 124 kts 15°
2026-04-20 20:33 39.80780 -104.66216 8090 ft 123 kts 15°
2026-04-20 20:33 39.81592 -104.65881 8086 ft 123 kts 28°
2026-04-20 20:34 39.82042 -104.64985 8102 ft 124 kts 73°
2026-04-20 20:34 39.82307 -104.63912 8101 ft 125 kts 72°
2026-04-20 20:34 39.82572 -104.62826 8098 ft 126 kts 72°
2026-04-20 20:34 39.82838 -104.61734 8099 ft 127 kts 72°
2026-04-20 20:35 39.83106 -104.60634 8101 ft 128 kts 73°
2026-04-20 20:35 39.83375 -104.59531 8097 ft 127 kts 73°
2026-04-20 20:35 39.83643 -104.58434 8099 ft 127 kts 73°
2026-04-20 20:35 39.83678 -104.57307 8101 ft 126 kts 97°
2026-04-20 20:36 39.83751 -104.56168 8098 ft 127 kts 82°
2026-04-20 20:36 39.83869 -104.55032 8101 ft 127 kts 83°
2026-04-20 20:36 39.84085 -104.53932 8094 ft 125 kts 71°
2026-04-20 20:36 39.84347 -104.52852 8094 ft 125 kts 73°
2026-04-20 20:37 39.84606 -104.51768 8094 ft 126 kts 73°
2026-04-20 20:37 39.84861 -104.50676 8095 ft 126 kts 73°
2026-04-20 20:37 39.85117 -104.49594 8096 ft 127 kts 73°
2026-04-20 20:37 39.85374 -104.48506 8093 ft 125 kts 73°
2026-04-20 20:38 39.85630 -104.47416 8095 ft 126 kts 73°
2026-04-20 20:38 39.85887 -104.46320 8094 ft 126 kts 73°
2026-04-20 20:38 39.86138 -104.45225 8092 ft 126 kts 78°
2026-04-20 20:38 39.85904 -104.44179 8106 ft 123 kts 124°
2026-04-20 20:39 39.85530 -104.43174 8101 ft 123 kts 114°
2026-04-20 20:39 39.85092 -104.42220 8095 ft 125 kts 113°
2026-04-20 20:39 39.85221 -104.41154 8082 ft 125 kts 50°
2026-04-20 20:39 39.85953 -104.40570 8092 ft 124 kts 29°
2026-04-20 20:40 39.86710 -104.40029 8095 ft 124 kts 31°
2026-04-20 20:40 39.87355 -104.39286 8098 ft 125 kts 50°
2026-04-20 20:40 39.87714 -104.38264 8103 ft 126 kts 70°
2026-04-20 20:40 39.88008 -104.37192 8096 ft 125 kts 72°
2026-04-20 20:41 39.88275 -104.36124 8094 ft 123 kts 73°
2026-04-20 20:41 39.88529 -104.35063 8096 ft 125 kts 73°
2026-04-20 20:41 39.88785 -104.33986 8097 ft 124 kts 73°
2026-04-20 20:41 39.89038 -104.32904 8100 ft 126 kts 73°
2026-04-20 20:42 39.89294 -104.31814 8098 ft 126 kts 73°
2026-04-20 20:42 39.89550 -104.30720 8098 ft 126 kts 73°
2026-04-20 20:42 39.89807 -104.29627 8101 ft 126 kts 73°
2026-04-20 20:42 39.90064 -104.28531 8101 ft 126 kts 73°
2026-04-20 20:43 39.90320 -104.27433 8100 ft 127 kts 73°
2026-04-20 20:43 39.90580 -104.26335 8101 ft 127 kts 73°
2026-04-20 20:43 39.90837 -104.25238 8098 ft 126 kts 73°
2026-04-20 20:43 39.91092 -104.24148 8097 ft 126 kts 73°
2026-04-20 20:44 39.91261 -104.23428 8096 ft 125 kts 73°
2026-04-20 20:44 39.91516 -104.22348 8096 ft 125 kts 73°
2026-04-20 20:44 39.91854 -104.20902 8097 ft 127 kts 73°
2026-04-20 20:44 39.92112 -104.19799 8098 ft 128 kts 73°
2026-04-20 20:45 39.92284 -104.19067 8099 ft 128 kts 73°
2026-04-20 20:45 39.92542 -104.17962 8099 ft 127 kts 73°
2026-04-20 20:45 39.92801 -104.16861 8101 ft 128 kts 73°
2026-04-20 20:45 39.93061 -104.15752 8098 ft 127 kts 73°
2026-04-20 20:46 39.93320 -104.14650 8100 ft 128 kts 73°
2026-04-20 20:46 39.93578 -104.13545 8100 ft 128 kts 73°
2026-04-20 20:46 39.93838 -104.12442 8098 ft 127 kts 73°
2026-04-20 20:46 39.94096 -104.11336 8098 ft 128 kts 73°
2026-04-20 20:47 39.94356 -104.10228 8098 ft 128 kts 73°
2026-04-20 20:47 39.94617 -104.09121 8096 ft 127 kts 73°
2026-04-20 20:47 39.94872 -104.08026 8095 ft 126 kts 73°
2026-04-20 20:47 39.95129 -104.06928 8092 ft 126 kts 73°
2026-04-20 20:48 39.95386 -104.05836 8092 ft 126 kts 73°
2026-04-20 20:48 39.95641 -104.04747 8091 ft 126 kts 73°
2026-04-20 20:48 39.95894 -104.03670 8094 ft 126 kts 73°
2026-04-20 20:48 39.96148 -104.02578 8093 ft 126 kts 73°
2026-04-20 20:49 39.96404 -104.01484 8093 ft 126 kts 73°
2026-04-20 20:49 39.96661 -104.00389 8093 ft 126 kts 73°
2026-04-20 20:49 39.96919 -103.99290 8093 ft 126 kts 73°
2026-04-20 20:49 39.97175 -103.98194 8092 ft 126 kts 73°
2026-04-20 20:50 39.97432 -103.97094 8092 ft 127 kts 73°
2026-04-20 20:50 39.97688 -103.96002 8132 ft 123 kts 73°
2026-04-20 20:50 39.97937 -103.94947 8147 ft 125 kts 73°
2026-04-20 20:50 39.98190 -103.93860 8145 ft 126 kts 73°
2026-04-20 20:51 39.98436 -103.92810 8146 ft 126 kts 74°
2026-04-20 20:51 39.98696 -103.91694 7895 ft 130 kts 72°
2026-04-20 20:51 39.98958 -103.90593 7997 ft 131 kts 74°
2026-04-20 20:51 39.99217 -103.89476 7868 ft 124 kts 71°
2026-04-20 20:52 39.99461 -103.88399 7879 ft 125 kts 71°
2026-04-20 20:52 39.99842 -103.87419 7874 ft 120 kts 36°
2026-04-20 20:52 40.00538 -103.86839 7893 ft 119 kts 32°
2026-04-20 20:52 40.01232 -103.86246 7897 ft 120 kts 31°
2026-04-20 20:53 40.01937 -103.85645 7889 ft 122 kts 31°
2026-04-20 20:53 40.02653 -103.85034 7889 ft 124 kts 30°
2026-04-20 20:53 40.03379 -103.84414 7894 ft 126 kts 31°
2026-04-20 20:53 40.04106 -103.83793 7891 ft 124 kts 32°
2026-04-20 20:54 40.04727 -103.83005 7889 ft 126 kts 50°
2026-04-20 20:54 40.05050 -103.81947 7895 ft 127 kts 73°
2026-04-20 20:54 40.05277 -103.80827 7899 ft 129 kts 75°
2026-04-20 20:54 40.05501 -103.79706 7891 ft 129 kts 70°
2026-04-20 20:55 40.05780 -103.78597 7894 ft 129 kts 70°
2026-04-20 20:55 40.06061 -103.77475 7890 ft 130 kts 70°
2026-04-20 20:55 40.06302 -103.76338 7885 ft 132 kts 89°
2026-04-20 20:55 40.06260 -103.75166 7881 ft 128 kts 75°
2026-04-20 20:56 40.06434 -103.74024 7892 ft 128 kts 79°
2026-04-20 20:56 40.06610 -103.72882 7894 ft 129 kts 77°
2026-04-20 20:56 40.06789 -103.71738 7889 ft 128 kts 77°
2026-04-20 20:56 40.06973 -103.70597 7893 ft 130 kts 76°
2026-04-20 20:57 40.07160 -103.69448 7891 ft 129 kts 77°
2026-04-20 20:57 40.07346 -103.68300 7893 ft 129 kts 77°
2026-04-20 20:57 40.07533 -103.67161 7886 ft 128 kts 76°
2026-04-20 20:57 40.07719 -103.66025 7886 ft 128 kts 76°
2026-04-20 20:58 40.07904 -103.64888 7918 ft 128 kts 76°
2026-04-20 20:58 40.08090 -103.63747 7918 ft 129 kts 77°
2026-04-20 20:58 40.08275 -103.62609 7912 ft 130 kts 77°
2026-04-20 20:58 40.08463 -103.61453 7912 ft 131 kts 76°
2026-04-20 20:59 40.08654 -103.60284 7911 ft 132 kts 76°
2026-04-20 20:59 40.08846 -103.59114 7909 ft 131 kts 77°
2026-04-20 20:59 40.08983 -103.57950 7914 ft 130 kts 95°
2026-04-20 20:59 40.08756 -103.56807 7919 ft 130 kts 105°
2026-04-20 21:00 40.08511 -103.55674 7925 ft 130 kts 106°
2026-04-20 21:00 40.08244 -103.54538 7932 ft 130 kts 107°
2026-04-20 21:00 40.07979 -103.53406 7934 ft 130 kts 107°
2026-04-20 21:00 40.07712 -103.52271 7887 ft 131 kts 107°
2026-04-20 21:01 40.07449 -103.51147 7892 ft 131 kts 107°
2026-04-20 21:01 40.07189 -103.50008 7886 ft 130 kts 107°
2026-04-20 21:01 40.06934 -103.48870 7881 ft 132 kts 107°
2026-04-20 21:01 40.06685 -103.47719 7887 ft 131 kts 107°
2026-04-20 21:02 40.06434 -103.46573 7886 ft 131 kts 107°
2026-04-20 21:02 40.06183 -103.45429 7884 ft 131 kts 107°
2026-04-20 21:02 40.05934 -103.44281 7883 ft 131 kts 107°
2026-04-20 21:02 40.05681 -103.43119 7888 ft 134 kts 107°
2026-04-20 21:03 40.05421 -103.41938 7887 ft 136 kts 107°
2026-04-20 21:03 40.05161 -103.40755 7885 ft 135 kts 107°
2026-04-20 21:03 40.04904 -103.39585 7882 ft 134 kts 107°
2026-04-20 21:03 40.04649 -103.38409 7885 ft 134 kts 107°
2026-04-20 21:04 40.04392 -103.37239 7884 ft 134 kts 107°
2026-04-20 21:04 40.04137 -103.36066 7878 ft 135 kts 107°
2026-04-20 21:04 40.03882 -103.34886 7879 ft 134 kts 107°
2026-04-20 21:04 40.03631 -103.33716 7876 ft 134 kts 107°
2026-04-20 21:05 40.03379 -103.32545 7867 ft 134 kts 107°
2026-04-20 21:05 40.03130 -103.31385 7863 ft 132 kts 107°
2026-04-20 21:05 40.02890 -103.30261 7863 ft 130 kts 107°
2026-04-20 21:05 40.02648 -103.29110 7875 ft 131 kts 107°